Location: Colle Santa Colomba
(42.0333°N, 12.5667°E)
Time: 02:37:56
(UTC+00:00)

H-2A R/B - Pass Details

Date: 25 October 2021
Orbit: 577 x 654 km, 98.5° (Epoch: 28 November)

Event Time Altitude Azimuth Distance (km) Brightness Sun altitude
Exits shadow 17:30:43 25° 71° (ENE) 1,207 3.0 -15.1°
Maximum altitude 17:31:46 28° 97° (E) 1,122 2.8 -15.2°
Drops below altitude 10° 17:35:24 10° 157° (SSE) 1,941 4.4 -15.9°
Sets 17:37:49 0° 169° (S) 2,853 5.4 -16.4°
